Location: Felsheim
(48.7267°N, 10.7386°E)
Time: 23:14:10
(UTC+00:00)

STARLINK-1210 - Pass Details

Date: 09 April 2020
Orbit: 548 x 551 km, 53.0° (Epoch: 27 May)

Event Time Altitude Azimuth Distance (km) Brightness Sun altitude
Rises 18:12:24 0° 294° (WNW) 2,720 9.6 -2.8°
Reaches altitude 10° 18:14:38 10° 295° (WNW) 1,825 8.2 -3.1°
Maximum altitude 18:18:48 88° 29° (NNE) 554 3.7 -3.8°
Drops below altitude 10° 18:22:56 10° 116° (ESE) 1,818 5.6 -4.4°
Enters shadow 18:23:53 - 116° (ESE) 2,196 6.0 -4.6°
